Weather History for Charlevoix, MI

Change the Weather History Date:

Wednesday, December 11, 2013

  Actual Average Record
Temperature  
Mean Temperature 14 °F -  
Max Temperature 16 °F 36 °F 48 °F (2011)
Min Temperature 13 °F 21 °F 13 °F (2013)
Degree Days  
Heating Degree Days 50    
Moisture  
Dew Point 6 °F    
Average Humidity 71    
Maximum Humidity 85    
Minimum Humidity 57    
Precipitation  
Precipitation 0.00 in - - ()
Sea Level Pressure  
Sea Level Pressure 30.22 in    
Wind  
Wind Speed 20 mph (WNW)    
Max Wind Speed 26 mph    
Max Gust Speed 33 mph    
Visibility 4 miles    
Events Snow    
Averages and records for this station are not official NWS values.
T = Trace of Precipitation, MM = Missing Value Source: NWS Daily Summary

Daily Weather History Graph

Daily Weather History Graph

Search for Another Location

Airport:

Trip Planner

Search our weather history database for the weather conditions in past years. The results will help you decide how hot, cold, wet, or windy it might be!

Date:

Astronomy

Dec. 11, 2013 Rise Set
Actual Time 8:10 AM EST 4:58 PM EST
Civil Twilight 7:36 AM EST 5:32 PM EST
Nautical Twilight 6:59 AM EST 6:09 PM EST
Astronomical Twilight 6:23 AM EST 6:45 PM EST
Moon 1:43 PM EST (12/11) 2:17 AM EST (12/11)
Length of Visible Light 9h 55m
Length of Day
8h 47m
Waxing Gibbous, 71% of the Moon is Illuminated
Dec 11
Waxing Gibbous
Dec 17
Full
Dec 25
Last Quarter
Jan 1
New
Jan 7
First Quarter

Hourly Weather History & Observations

Time (EST) Temp. Windchill Dew Point Humidity Pressure Visibility Wind Dir Wind Speed Gust Speed Precip Events Conditions
12:15 AM 16.3 °F -1.6 °F 10.4 °F 77% 30.05 in 1.2 mi West 23.0 mph 29.9 mph N/A Snow Light Snow
12:35 AM 16.2 °F -1.4 °F 9.9 °F 76% 30.06 in 1.8 mi West 21.9 mph 32.2 mph N/A Snow Light Snow
12:55 AM 16.5 °F -0.1 °F 8.8 °F 72% 30.05 in 4.0 mi West 19.6 mph 27.6 mph N/A   Haze
1:15 AM 16.2 °F -2.6 °F 9.0 °F 73% 30.06 in 2.5 mi West 25.3 mph 33.4 mph N/A Snow Light Snow
1:35 AM 16.5 °F -0.6 °F 9.1 °F 73% 30.06 in 3.0 mi West 20.7 mph 31.1 mph N/A Snow Light Snow
1:55 AM 16.3 °F -0.8 °F 10.4 °F 77% 30.07 in 1.5 mi West 20.7 mph 33.4 mph N/A Snow Light Snow
2:14 AM 16.2 °F -2.6 °F 9.0 °F 73% 30.07 in 4.0 mi West 25.3 mph 29.9 mph N/A   Haze
2:35 AM 15.8 °F -1.5 °F 10.0 °F 78% 30.08 in 1.5 mi West 20.7 mph 29.9 mph N/A Snow Light Snow
2:55 AM 15.4 °F -2.8 °F 10.4 °F 80% 30.09 in 0.8 mi West 23.0 mph 32.2 mph N/A Snow Light Snow
3:14 AM 15.4 °F -3.2 °F 10.9 °F 82% 30.10 in 0.8 mi West 24.2 mph 27.6 mph N/A Snow Light Snow
3:35 AM 15.3 °F -4.1 °F 10.9 °F 83% 30.11 in 0.8 mi West 26.5 mph 33.4 mph N/A Snow Light Snow
3:55 AM 15.1 °F -3.3 °F 11.1 °F 84% 30.11 in 0.8 mi WNW 23.0 mph 29.9 mph N/A Snow Snow
4:14 AM 14.5 °F -4.0 °F 10.6 °F 84% 30.11 in 0.5 mi WNW 23.0 mph 32.2 mph N/A Snow Snow
4:35 AM 14.4 °F -4.2 °F 10.6 °F 85% 30.11 in 0.5 mi WNW 23.0 mph 32.2 mph N/A Snow Heavy Snow
4:55 AM 14.2 °F -4.1 °F 10.0 °F 84% 30.12 in 0.8 mi WNW 21.9 mph 32.2 mph N/A Snow Snow
5:14 AM 14.0 °F -4.7 °F 9.9 °F 84% 30.12 in 0.5 mi WNW 23.0 mph 29.9 mph N/A Snow Snow
5:35 AM 14.4 °F -5.0 °F 9.9 °F 82% 30.13 in 1.0 mi West 25.3 mph - N/A Snow Light Snow
5:55 AM 14.0 °F -3.9 °F 8.8 °F 80% 30.13 in 0.8 mi WNW 20.7 mph 28.8 mph N/A Snow Light Snow
6:15 AM 13.6 °F -4.8 °F 7.0 °F 75% 30.13 in 1.0 mi WNW 21.9 mph 32.2 mph N/A Snow Light Snow
6:35 AM 13.8 °F -5.3 °F 6.3 °F 72% 30.14 in 2.0 mi WNW 24.2 mph 29.9 mph N/A Snow Light Snow
6:55 AM 13.8 °F -2.7 °F 4.6 °F 67% 30.15 in 3.0 mi WNW 17.3 mph 32.2 mph N/A   Haze
7:15 AM 13.5 °F -4.6 °F 6.3 °F 73% 30.16 in 1.5 mi West 20.7 mph 29.9 mph N/A Snow Light Snow
7:35 AM 13.6 °F -4.4 °F 6.6 °F 74% 30.17 in 2.0 mi West 20.7 mph 24.2 mph N/A Snow Light Snow
7:54 AM 13.3 °F -4.4 °F 4.6 °F 68% 30.18 in 3.0 mi West 19.6 mph 29.9 mph N/A   Haze
8:59 AM 13.6 °F -4.8 °F 5.0 °F 68% 30.20 in 4.0 mi West 21.9 mph 27.6 mph N/A   Haze
9:15 AM 13.8 °F -3.2 °F 3.9 °F 65% 30.21 in 10.0 mi West 18.4 mph 25.3 mph N/A   Overcast
9:35 AM 13.6 °F -2.4 °F 3.6 °F 64% 30.22 in 7.0 mi West 16.1 mph 24.2 mph N/A   Overcast
9:54 AM 13.8 °F -3.2 °F 4.3 °F 66% 30.22 in 3.0 mi WNW 18.4 mph - N/A   Haze
10:15 AM 14.0 °F -4.7 °F 6.4 °F 72% 30.23 in 1.5 mi West 23.0 mph 31.1 mph N/A Snow Light Snow
10:35 AM 13.8 °F -2.2 °F 6.8 °F 74% 30.23 in 1.2 mi WNW 16.1 mph 26.5 mph N/A Snow Light Snow
10:54 AM 13.6 °F -1.3 °F 5.4 °F 70% 30.24 in 2.5 mi WNW 13.8 mph 20.7 mph N/A Snow Light Snow
11:15 AM 13.8 °F -3.2 °F 5.9 °F 71% 30.24 in 2.0 mi WNW 18.4 mph 24.2 mph N/A Snow Light Snow
11:35 AM 13.8 °F -3.2 °F 5.5 °F 70% 30.25 in 2.0 mi WNW 18.4 mph 23.0 mph N/A Snow Light Snow
11:54 AM 13.6 °F -3.0 °F 5.4 °F 70% 30.25 in 2.5 mi WNW 17.3 mph 25.3 mph N/A Snow Light Snow
12:15 PM 13.8 °F -2.7 °F 4.6 °F 67% 30.25 in 4.0 mi West 17.3 mph 21.9 mph N/A Snow Light Snow
12:35 PM 13.6 °F -3.0 °F 5.5 °F 70% 30.24 in 2.0 mi West 17.3 mph 24.2 mph N/A Snow Light Snow
12:55 PM 14.0 °F -1.4 °F 4.6 °F 66% 30.24 in 5.0 mi West 15.0 mph 21.9 mph N/A   Haze
1:15 PM 13.6 °F -1.3 °F 6.6 °F 74% 30.24 in 1.0 mi WNW 13.8 mph 23.0 mph N/A Snow Light Snow
1:35 PM 14.0 °F -1.4 °F 4.6 °F 66% 30.24 in 4.0 mi WNW 15.0 mph 23.0 mph N/A   Haze
1:55 PM 13.8 °F -1.1 °F 5.9 °F 71% 30.24 in 2.0 mi WNW 13.8 mph 20.7 mph N/A Snow Light Snow
2:15 PM 13.6 °F -2.4 °F 6.4 °F 73% 30.25 in 1.8 mi West 16.1 mph 23.0 mph N/A Snow Light Snow
2:35 PM 13.8 °F -0.5 °F 5.7 °F 70% 30.25 in 1.2 mi NW 12.7 mph - N/A Snow Light Snow
2:55 PM 14.0 °F -1.4 °F 5.9 °F 70% 30.25 in 2.0 mi WNW 15.0 mph 21.9 mph N/A Snow Light Snow
3:15 PM 13.8 °F -2.2 °F 5.7 °F 70% 30.25 in 2.0 mi West 16.1 mph 21.9 mph N/A Snow Light Snow
3:34 PM 13.8 °F -1.1 °F 7.0 °F 74% 30.26 in 2.0 mi West 13.8 mph - N/A Snow Light Snow
3:55 PM 14.0 °F -2.0 °F 5.4 °F 69% 30.26 in 2.0 mi WNW 16.1 mph 21.9 mph N/A Snow Light Snow
4:15 PM 13.8 °F -2.7 °F 6.1 °F 71% 30.27 in 1.8 mi WNW 17.3 mph 20.7 mph N/A Snow Light Snow
4:34 PM 14.0 °F -1.4 °F 6.1 °F 71% 30.27 in 1.5 mi West 15.0 mph 21.9 mph N/A Snow Light Snow
4:55 PM 14.0 °F -0.2 °F 7.0 °F 74% 30.28 in 1.5 mi WNW 12.7 mph - N/A Snow Light Snow
5:15 PM 14.5 °F 1.1 °F 5.4 °F 67% 30.28 in 10.0 mi West 11.5 mph - N/A   Overcast
5:34 PM 14.5 °F -0.2 °F 2.8 °F 60% 30.29 in 10.0 mi West 13.8 mph 17.3 mph N/A   Overcast
5:55 PM 14.5 °F 1.1 °F 1.9 °F 57% 30.29 in 10.0 mi WNW 11.5 mph 20.7 mph N/A   Overcast
6:15 PM 14.0 °F -0.8 °F 4.3 °F 65% 30.30 in 4.0 mi WNW 13.8 mph 21.9 mph N/A Snow Light Snow
6:35 PM 14.2 °F -2.3 °F 3.6 °F 63% 30.31 in 7.0 mi West 17.3 mph 24.2 mph N/A   Overcast
6:55 PM 14.2 °F -0.6 °F 5.7 °F 69% 30.32 in 4.0 mi WNW 13.8 mph - N/A Snow Light Snow
7:15 PM 14.0 °F -0.8 °F 2.1 °F 59% 30.32 in 7.0 mi West 13.8 mph - N/A   Overcast
7:35 PM 14.4 °F -3.0 °F 4.6 °F 65% 30.32 in 4.0 mi WNW 19.6 mph 25.3 mph N/A Snow Light Snow
7:55 PM 14.0 °F -2.0 °F 3.9 °F 64% 30.32 in 4.0 mi West 16.1 mph 25.3 mph N/A   Haze
8:15 PM 14.5 °F -1.8 °F 4.3 °F 64% 30.33 in 7.0 mi West 17.3 mph 21.9 mph N/A   Overcast
8:35 PM 14.4 °F -2.5 °F 4.8 °F 66% 30.33 in 4.0 mi West 18.4 mph 25.3 mph N/A   Haze
8:55 PM 14.2 °F -3.2 °F 5.5 °F 69% 30.33 in 5.0 mi West 19.6 mph - N/A   Haze
9:14 PM 13.8 °F -1.7 °F 3.7 °F 64% 30.33 in 7.0 mi WNW 15.0 mph 21.9 mph N/A   Overcast
9:35 PM 13.8 °F -2.2 °F 4.1 °F 65% 30.32 in 7.0 mi WNW 16.1 mph 24.2 mph N/A Snow Light Snow
9:55 PM 13.5 °F -0.9 °F 2.8 °F 63% 30.32 in 7.0 mi West 12.7 mph 24.2 mph N/A   Overcast
10:14 PM 13.3 °F -3.4 °F 2.8 °F 63% 30.32 in 10.0 mi West 17.3 mph - N/A   Overcast
10:35 PM 13.5 °F -1.5 °F 2.8 °F 63% 30.31 in 10.0 mi West 13.8 mph 18.4 mph N/A   Overcast
10:55 PM 13.6 °F -1.9 °F 3.2 °F 63% 30.31 in 10.0 mi West 15.0 mph 23.0 mph N/A   Overcast
11:14 PM 13.6 °F -1.3 °F 3.0 °F 63% 30.31 in 10.0 mi West 13.8 mph 23.0 mph N/A   Overcast
11:35 PM 13.8 °F -2.2 °F 4.5 °F 66% 30.32 in 7.0 mi West 16.1 mph 21.9 mph N/A   Overcast
11:55 PM 13.8 °F -1.7 °F 5.2 °F 69% 30.32 in 4.0 mi West 15.0 mph 20.7 mph N/A Snow Light Snow